CZ-6A DEB, 55878

Orbit data source: Space-Track

CZ-6A DEB, 55878 is space debris in SSO originally from a launch on Fri, 11 Nov 2022 UTC launched from the Taiyaun Space Center, China (TSC). Debris objects in space refer to the collection of defunct objects orbiting the Earth. Examples of debris include non-operational satellites, rocket bodies, and fragments generated from explosions, collisions, or faulty payload assembly.

Loading next visibility...
Identifier
55878, 2022-151AAA
Orbit
SSO
Country
Flag of CNCN / PRC
Related business
Manufacturer
SAST
Mission
Spacecraft
Bus & Motor
Unknown
Mass
Unknown
Launch date (UTC)
2022-11-11 (4 years ago)
Launch vehicle
Unknown
Launch site
Taiyaun Space Center, China (TSC)
Object type
Payload
Rocket body
Debris
Shape & HBR
Unknown shape, 0.1 m
Radar Cross Section
Medium (>0.1 m² and <1 m²)

Expand to show TLE details & history
Last TLE update: 2 days ago

TLE from 2 days ago
0 CZ-6A DEB
1 55878U 22151AAA 26171.25968492  .00157061  00000-0  45007-2 0  9994
2 55878  98.6189 279.7466 0033298 164.3204 195.9074 15.34724671180837
Epoch: 2026-06-20T06:13Z
TLE epoch observation values (Epoch: 2026-06-20T06:13:56.777Z)
Latitude
-0.00007°
Longitude
-82.21683°
Altitude
486.725 km
Speed
7.61 km/s
True Right ascension
18h 38m 59s
True Declination
0° 00' 00"
Sunlit
Object was in full shadow at epoch
Visualization orbit readout
Latitude
Unknown
Longitude
Unknown
Altitude
Unknown
Speed
Unknown
Apparent Right ascension
Unknown
Apparent Declination
Unknown
Sunlit
N/A
Visualization observer readout
Local Sidereal Time
21:35:47
Azimuth
Unknown
Elevation
Unknown
Doppler factor
Unknown
Orbital elements
Apogee altitude
481.506 km
Perigee altitude
435.976 km
Semi-major axis
6,836.878 km
Eccentricity
0.00333
Inclination
98.6189°
RAAN
279.7466°
Arg. of periapsis
164.3204°
True anomaly
195.80324°
Mean anomaly
195.9074°
Eccentric anomaly
195.85528°
Mean motion
3.83934 °/min
Orbital period
93.77 mins
BSTAR
0.0045007
Loading maneuver chart data...
Computing Atmospheric mass density...
Loading historical data...
Loading historical data...
Loading historical data...
Loading historical data...
Loading historical data...
Loading historical data...
Loading historical data...

Documentation

Showing up to 5 results
|